Jackson, MI

1:49 AM EST on December 06, 2019 (GMT -0500)
Jackson County-Reynolds

Weather History for KJXN - November, 2019

Change the Weather History Date:

Tuesday, November 12, 2019

  Actual Average Record
Temperature  
Mean Temperature 16 °F 41 °F  
Max Temperature 24 °F 50 °F 72 °F (1964)
Min Temperature 7 °F 33 °F 15 °F (1976)
Degree Days  
Heating Degree Days 50 24  
Month to date heating degree days 378 259  
Since 1 July heating degree days 867 907  
Cooling Degree Days 0 0  
Month to date cooling degree days 0 0  
Year to date cooling degree days 663 592  
Moisture  
Dew Point 9 °F    
Average Humidity 72    
Maximum Humidity 87    
Minimum Humidity 50    
Precipitation  
Precipitation T in 0.09 in 1.67 in (1992)
Month to date precipitation 0.60 1.05  
Year to date precipitation 32.51 28.08  
Sea Level Pressure  
Sea Level Pressure 30.33 in    
Wind  
Wind Speed 6 mph ()    
Max Wind Speed 15 mph    
Max Gust Speed 23 mph    
Visibility 9.6 miles    
Events Snow    
T = Trace of Precipitation, MM = Missing Value Source: Averaged Metar Reports

Daily Weather History Graph

Daily Weather History Graph

Search for Another Location

Airport or City:

Astronomy

Nov. 12, 2019 Rise Set
Actual Time 7:24 AM EST 5:19 PM EST
Civil Twilight 6:54 AM EST 5:48 PM EST
Nautical Twilight 6:20 AM EST 6:22 PM EST
Astronomical Twilight 5:47 AM EST 6:55 PM EST
Moon 5:46 PM EST (11/12) 7:14 AM EST (11/12)
Length of Visible Light 10h 54m
Length of Day
9h 54m
Full, 100% of the Moon is Illuminated
Nov 12
Full
Nov 19
Last Quarter
Nov 26
New
Dec 4
First Quarter
Dec 12
Full

Hourly Weather History & Observations

Time (EST) Temp. Windchill Dew Point Humidity Pressure Visibility Wind Dir Wind Speed Gust Speed Precip Events Conditions
12:56 AM 19.0 °F 11.1 °F 14.0 °F 81% 30.22 in 10.0 mi WNW 5.8 mph - 0.00 in   Overcast
1:56 AM 19.0 °F 11.1 °F 14.0 °F 81% 30.23 in 8.0 mi WNW 5.8 mph - 0.00 in   Overcast
2:56 AM 18.0 °F 12.7 °F 14.0 °F 84% 30.24 in 8.0 mi West 3.5 mph - 0.00 in   Overcast
3:56 AM 17.1 °F 10.0 °F 12.9 °F 84% 30.23 in 10.0 mi West 4.6 mph - N/A   Overcast
4:56 AM 18.0 °F 7.7 °F 12.9 °F 81% 30.26 in 10.0 mi WNW 8.1 mph - N/A   Overcast
5:06 AM 18.0 °F 6.9 °F 12.0 °F 78% 30.21 in 10.0 mi WNW 9.2 mph - N/A   Overcast
5:56 AM 18.0 °F 8.7 °F 12.0 °F 78% 30.27 in 4.0 mi WNW 6.9 mph - 0.00 in Snow Light Snow
6:56 AM 17.1 °F 7.6 °F 10.9 °F 77% 30.30 in 10.0 mi WNW 6.9 mph - 0.00 in   Overcast
7:20 AM 16.0 °F 6.3 °F 10.9 °F 81% 30.25 in 10.0 mi WNW 6.9 mph - N/A   Overcast
7:43 AM 16.0 °F 7.4 °F 10.0 °F 77% 30.26 in 10.0 mi WNW 5.8 mph - N/A   Scattered Clouds
7:56 AM 15.1 °F 6.4 °F 10.0 °F 80% 30.33 in 10.0 mi West 5.8 mph - N/A   Clear
8:56 AM 17.1 °F 7.6 °F 10.9 °F 77% 30.35 in 10.0 mi West 6.9 mph - N/A   Clear
9:56 AM 19.9 °F 9.3 °F 10.9 °F 68% 30.36 in 10.0 mi WNW 9.2 mph 20.7 mph N/A   Clear
10:56 AM 21.0 °F 10.6 °F 10.0 °F 63% 30.37 in 10.0 mi West 9.2 mph 19.6 mph N/A   Partly Cloudy
11:56 AM 23.0 °F 12.4 °F 9.0 °F 55% 30.36 in 10.0 mi West 10.4 mph 20.7 mph N/A   Mostly Cloudy
12:56 PM 23.0 °F 11.1 °F 7.0 °F 50% 30.36 in 10.0 mi West 12.7 mph 20.7 mph N/A   Partly Cloudy
1:56 PM 23.0 °F 12.4 °F 7.0 °F 50% 30.36 in 10.0 mi West 10.4 mph - N/A   Overcast
2:56 PM 21.9 °F 13.4 °F 7.0 °F 53% 30.36 in 10.0 mi WNW 6.9 mph - N/A   Overcast
3:56 PM 23.0 °F 14.7 °F 7.0 °F 50% 30.36 in 10.0 mi WNW 6.9 mph 19.6 mph N/A   Scattered Clouds
4:56 PM 19.9 °F 8.6 °F 6.1 °F 55% 30.38 in 10.0 mi West 10.4 mph - N/A   Clear
5:56 PM 19.0 °F 12.3 °F 7.0 °F 59% 30.39 in 10.0 mi West 4.6 mph - N/A   Mostly Cloudy
6:56 PM 18.0 °F 6.9 °F 8.1 °F 65% 30.40 in 10.0 mi West 9.2 mph - 0.00 in   Clear
7:56 PM 14.0 °F 6.5 °F 7.0 °F 74% 30.42 in 10.0 mi WSW 4.6 mph - N/A   Clear
8:56 PM 10.9 °F 4.7 °F 6.1 °F 81% 30.42 in 10.0 mi SW 3.5 mph - N/A   Clear
9:56 PM 10.0 °F 3.6 °F 6.1 °F 84% 30.41 in 10.0 mi SW 3.5 mph - N/A   Clear
10:56 PM 8.1 °F 1.4 °F 3.9 °F 83% 30.42 in 10.0 mi SW 3.5 mph - N/A   Clear
11:56 PM 8.1 °F 1.4 °F 5.0 °F 87% 30.41 in 10.0 mi WSW 3.5 mph - N/A   Clear